Location: La Silve
(44.2414°N, 5.8889°E)
Time: 18:50:14
(UTC+00:00)

CENTAUR R/B - Pass Details

Date: 15 April 2021
Orbit: 742 x 1446 km, 63.4° (Epoch: 18 April)

Event Time Altitude Azimuth Distance (km) Brightness Sun altitude
Rises 21:07:15 0° 309° (NW) 4,332 7.2 -26.0°
Reaches altitude 10° 21:11:20 10° 291° (WNW) 3,451 6.1 -26.5°
Maximum altitude 21:16:09 16° 256° (WSW) 3,041 5.3 -27.1°
Drops below altitude 10° 21:21:05 10° 222° (SW) 3,552 5.3 -27.6°
Enters shadow 21:23:38 - 210° (SSW) 4,082 5.5 -27.9°
